| time (UTC) | temp F | wind direction | speed knots | gust knots | rain 1hr in | rain 24hr in | rain mn in | humidity % | barometer mb |
| 20260507064547 | 53 | 344 | 2.6 | 5.2 | 0.00 | 1.91 | 0.00 | 70 | 1011.9 |
| 20260507063050 | 50 | 355 | 0.9 | 3.5 | 0.00 | 1.91 | 0.00 | 78 | 1011.8 |
| 20260507061542 | 48 | 291 | 1.7 | 3.5 | 0.00 | 1.91 | 0.00 | 79 | 1011.8 |
| 20260507060043 | 48 | 327 | 1.7 | 6.1 | 0.00 | 1.91 | 0.00 | 79 | 1011.7 |
| 20260507054541 | 48 | 321 | 2.6 | 5.2 | 0.00 | 2.06 | 0.00 | 79 | 1011.6 |
| 20260507053038 | 48 | 309 | 3.5 | 7.0 | 0.00 | 2.06 | 0.00 | 80 | 1011.5 |
| 20260507051534 | 47 | 324 | 1.7 | 3.5 | 0.00 | 2.06 | 0.00 | 81 | 1011.4 |
| 20260507050052 | 47 | 299 | 1.7 | 4.3 | 0.00 | 2.06 | 0.00 | 81 | 1011.2 |
| 20260507044536 | 47 | 345 | 1.7 | 3.5 | 0.00 | 2.20 | 0.00 | 81 | 1011.1 |
| 20260507043026 | 47 | 299 | 0.9 | 4.3 | 0.00 | 2.20 | 0.00 | 81 | 1010.8 |
| 20260507041526 | 47 | 350 | 0.0 | 3.5 | 0.00 | 2.20 | 0.00 | 80 | 1010.6 |
| 20260507040024 | 47 | 35 | 0.9 | 2.6 | 0.00 | 2.20 | 0.00 | 81 | 1010.5 |
| 20260507034620 | 48 | 285 | 0.0 | 1.7 | 0.00 | 2.21 | 0.00 | 80 | 1010.5 |
| 20260507033029 | 48 | 355 | 0.0 | 3.5 | 0.00 | 2.21 | 0.00 | 80 | 1010.4 |
| 20260507031518 | 49 | 317 | 3.5 | 6.1 | 0.00 | 2.21 | 0.00 | 80 | 1010.4 |
| 20260507030016 | 49 | 351 | 3.5 | 6.1 | 0.00 | 2.21 | 0.00 | 80 | 1010.4 |
| 20260507024518 | 49 | 333 | 2.6 | 5.2 | 0.00 | 2.21 | 0.00 | 80 | 1010.3 |
| 20260507023014 | 49 | 319 | 2.6 | 5.2 | 0.00 | 2.21 | 0.00 | 81 | 1010.3 |
| 20260507021519 | 49 | 336 | 0.9 | 3.5 | 0.00 | 2.21 | 0.00 | 81 | 1010.3 |
| 20260507020020 | 49 | 317 | 1.7 | 4.3 | 0.00 | 2.21 | 0.00 | 82 | 1010.3 |
| 20260507014507 | 49 | 271 | 0.9 | 3.5 | 0.00 | 2.23 | 0.00 | 81 | 1010.2 |
| 20260507013008 | 50 | 279 | 0.9 | 2.6 | 0.00 | 2.23 | 0.00 | 80 | 1010.2 |
| 20260507011513 | 50 | 307 | 1.7 | 3.5 | 0.00 | 2.23 | 0.00 | 81 | 1010.2 |
| 20260507004600 | 51 | 317 | 2.6 | 5.2 | 0.00 | 2.23 | 0.00 | 78 | 1010.1 |
| 20260507003059 | 51 | 309 | 2.6 | 4.3 | 0.00 | 2.23 | 0.00 | 79 | 1010.0 |
| 20260507001605 | 51 | 318 | 2.6 | 4.3 | 0.00 | 2.23 | 0.00 | 79 | 1009.9 |
| 20260507000055 | 51 | 232 | 0.0 | 5.2 | 0.00 | 2.23 | 0.00 | 79 | 1009.8 |
| 20260506234614 | 51 | 348 | 2.6 | 6.1 | 0.00 | 2.23 | 0.00 | 79 | 1009.6 |
| 20260506233050 | 51 | 101 | 3.5 | 6.1 | 0.00 | 2.23 | 0.00 | 79 | 1009.4 |
| 20260506231549 | 52 | 279 | 1.7 | 6.1 | 0.00 | 2.23 | 0.00 | 79 | 1009.3 |
| 20260506230047 | 52 | 311 | 1.7 | 5.2 | 0.00 | 2.23 | 0.00 | 79 | 1009.2 |
| 20260506224547 | 52 | 269 | 0.0 | 5.2 | 0.00 | 2.23 | 0.00 | 79 | 1009.2 |
| 20260506223048 | 53 | 325 | 2.6 | 6.1 | 0.00 | 2.23 | 0.00 | 80 | 1009.4 |
| 20260506221540 | 53 | 338 | 0.0 | 2.6 | 0.00 | 2.23 | 0.00 | 81 | 1009.6 |
| 20260506220038 | 53 | 288 | 0.9 | 2.6 | 0.00 | 2.23 | 0.00 | 81 | 1009.4 |
| 20260506214540 | 53 | 21 | 1.7 | 3.5 | 0.00 | 2.23 | 2.23 | 81 | 1009.3 |
| 20260506213036 | 53 | 333 | 3.5 | 6.1 | 0.00 | 2.23 | 2.23 | 82 | 1009.1 |
| 20260506211536 | 53 | 312 | 1.7 | 5.2 | 0.00 | 2.23 | 2.23 | 83 | 1009.1 |
| 20260506210037 | 53 | 360 | 2.6 | 5.2 | 0.00 | 2.23 | 2.23 | 85 | 1009.1 |
| 20260506204547 | 53 | 312 | 2.6 | 5.2 | 0.00 | 2.23 | 2.23 | 86 | 1008.8 |
| 20260506203033 | 53 | 355 | 0.9 | 3.5 | 0.00 | 2.23 | 2.23 | 86 | 1008.6 |
| 20260506201535 | 54 | 355 | 0.0 | 2.6 | 0.00 | 2.23 | 2.23 | 85 | 1008.5 |
| 20260506200034 | 54 | 355 | 0.9 | 3.5 | 0.00 | 2.23 | 2.23 | 86 | 1008.2 |
| 20260506194534 | 55 | 239 | 0.0 | 2.6 | 0.00 | 2.23 | 2.23 | 83 | 1008.0 |
| 20260506193031 | 56 | 306 | 0.0 | 1.7 | 0.00 | 2.23 | 2.23 | 81 | 1007.7 |
| 20260506191529 | 57 | 23 | 0.0 | 1.7 | 0.00 | 2.23 | 2.23 | 79 | 1007.5 |
| 20260506190028 | 57 | 39 | 1.7 | 3.5 | 0.00 | 2.23 | 2.23 | 78 | 1007.0 |
| 20260506184527 | 58 | 339 | 1.7 | 4.3 | 0.00 | 2.23 | 2.23 | 77 | 1006.8 |
| 20260506183027 | 58 | 5 | 0.9 | 6.1 | 0.00 | 2.23 | 2.23 | 74 | 1006.6 |
| 20260506181529 | 58 | 360 | 3.5 | 6.1 | 0.00 | 2.23 | 2.23 | 75 | 1006.2 |
| 20260506180126 | 60 | 175 | 1.7 | 5.2 | 0.00 | 2.23 | 2.23 | 72 | 1006.0 |
| 20260506174524 | 60 | 60 | 2.6 | 4.3 | 0.00 | 2.29 | 2.23 | 69 | 1005.6 |
| 20260506173024 | 61 | 257 | 1.7 | 3.5 | 0.00 | 2.29 | 2.23 | 66 | 1005.5 |
| 20260506171535 | 62 | 84 | 0.0 | 3.5 | 0.00 | 2.29 | 2.23 | 63 | 1005.4 |
| 20260506170023 | 64 | 171 | 0.0 | 3.5 | 0.00 | 2.29 | 2.23 | 62 | 1005.3 |
| 20260506164523 | 63 | 324 | 1.7 | 9.6 | 0.00 | 2.37 | 2.23 | 58 | 1004.9 |
| 20260506163022 | 63 | 288 | 6.1 | 12.2 | 0.00 | 2.37 | 2.23 | 61 | 1004.7 |
| 20260506161523 | 62 | 297 | 7.0 | 14.8 | 0.01 | 2.37 | 2.23 | 65 | 1004.5 |
| 20260506160033 | 60 | 301 | 4.3 | 13.0 | 0.01 | 2.37 | 2.23 | 68 | 1004.5 |
| 20260506154518 | 60 | 310 | 5.2 | 10.4 | 0.01 | 2.37 | 2.23 | 69 | 1004.9 |
| 20260506153017 | 61 | 304 | 4.3 | 8.7 | 0.01 | 2.37 | 2.23 | 70 | 1005.4 |
| 20260506151529 | 62 | 250 | 4.3 | 11.3 | 0.00 | 2.36 | 2.22 | 71 | 1005.4 |
| 20260506150026 | 62 | 344 | 6.1 | 12.2 | 0.00 | 2.36 | 2.22 | 72 | 1005.6 |
| 20260506144514 | 63 | 271 | 1.7 | 5.2 | 0.00 | 2.36 | 2.22 | 70 | 1005.6 |
| 20260506143034 | 64 | 71 | 1.7 | 3.5 | 0.00 | 2.36 | 2.22 | 70 | 1005.2 |
| 20260506141513 | 64 | 78 | 0.0 | 5.2 | 0.00 | 2.36 | 2.22 | 65 | 1005.1 |
| 20260506140014 | 65 | 273 | 0.9 | 3.5 | 0.00 | 2.36 | 2.22 | 61 | 1005.0 |
| 20260506134512 | 66 | 250 | 1.7 | 6.1 | 0.00 | 2.36 | 2.22 | 58 | 1005.0 |
| 20260506133009 | 65 | 269 | 5.2 | 9.6 | 0.00 | 2.36 | 2.22 | 60 | 1005.0 |
| 20260506131508 | 64 | 305 | 7.0 | 10.4 | 0.00 | 2.36 | 2.22 | 60 | 1005.2 |
| 20260506130002 | 63 | 310 | 6.1 | 12.2 | 0.00 | 2.36 | 2.22 | 65 | 1005.4 |
| 20260506124557 | 62 | 319 | 5.2 | 11.3 | 0.00 | 2.36 | 2.22 | 69 | 1005.6 |
| 20260506123055 | 60 | 315 | 5.2 | 13.0 | 0.00 | 2.36 | 2.22 | 67 | 1005.8 |
| 20260506121552 | 59 | 328 | 5.2 | 11.3 | 0.00 | 2.36 | 2.22 | 69 | 1005.9 |
| 20260506120048 | 59 | 321 | 5.2 | 10.4 | 0.00 | 2.36 | 2.22 | 71 | 1005.9 |
| 20260506114548 | 59 | 11 | 9.6 | 15.6 | 0.00 | 2.36 | 2.22 | 72 | 1005.9 |
| 20260506113043 | 58 | 346 | 6.1 | 10.4 | 0.00 | 2.36 | 2.22 | 84 | 1005.9 |
| 20260506111541 | 57 | 320 | 4.3 | 7.0 | 0.00 | 2.36 | 2.22 | 83 | 1006.0 |
| 20260506110041 | 56 | 324 | 4.3 | 9.6 | 0.00 | 2.36 | 2.22 | 86 | 1006.0 |
| 20260506104533 | 54 | 336 | 4.3 | 9.6 | 0.00 | 2.36 | 2.22 | 95 | 1006.1 |
| 20260506103031 | 51 | 342 | 3.5 | 7.8 | 0.02 | 2.36 | 2.22 | 96 | 1006.3 |
| 20260506101546 | 49 | 360 | 2.6 | 9.6 | 0.08 | 2.36 | 2.22 | 96 | 1006.3 |
| 20260506100030 | 48 | 321 | 5.2 | 9.6 | 0.24 | 2.36 | 2.22 | 97 | 1006.4 |
| 20260506094529 | 48 | 5 | 6.1 | 9.6 | 0.43 | 2.37 | 2.22 | 97 | 1006.4 |
| 20260506093028 | 48 | 311 | 6.1 | 12.2 | 0.57 | 2.35 | 2.20 | 96 | 1006.4 |
| 20260506091525 | 49 | 299 | 5.2 | 9.6 | 0.66 | 2.29 | 2.14 | 97 | 1006.3 |
| 20260506090020 | 50 | 281 | 4.3 | 8.7 | 0.69 | 2.13 | 1.98 | 97 | 1006.3 |
| 20260506084519 | 51 | 281 | 3.5 | 5.2 | 0.63 | 1.94 | 1.79 | 97 | 1006.0 |
| 20260506083013 | 51 | 317 | 2.6 | 5.2 | 0.69 | 1.77 | 1.62 | 97 | 1006.2 |
| 20260506081510 | 53 | 331 | 2.6 | 5.2 | 0.73 | 1.62 | 1.47 | 97 | 1006.6 |
| 20260506073006 | 53 | 355 | 0.9 | 3.5 | 0.57 | 1.07 | 0.91 | 97 | 1006.3 |
| 20260506071512 | 53 | 289 | 1.7 | 4.3 | 0.41 | 0.90 | 0.74 | 97 | 1006.2 |